When you browse on this site, cookies collect data to enhance your experience and personalize the content and advertising you see.
Visit our Privacy Policy to learn more. By continuing to use the site, you agree to this use of cookies and data.

Hourly Weather Maloe Voronovo

Today, 11 August, Tuesday

Time Temperature Precipitation Wind Pressure Humidity
00:00 +11°C° 0 mm 3 mps 747 mmHg 95%
01:00 +11°C° 0 mm 3 mps 747 mmHg 96%
02:00 +11°C° 0 mm 3 mps 747 mmHg 98%
03:00 +11°C° 0 mm 3 mps 747 mmHg 96%
04:00 +10°C° 0 mm 3 mps 747 mmHg 95%
05:00 +10°C° 0 mm 3 mps 747 mmHg 94%
06:00 +11°C° 0 mm 3 mps 747 mmHg 91%
07:00 +12°C° 0 mm 3 mps 748 mmHg 89%
08:00 +13°C° 0 mm 3 mps 748 mmHg 86%
09:00 +13°C° 0.2 mm 3 mps 748 mmHg 84%
10:00 +13°C° 0.2 mm 3 mps 748 mmHg 83%
11:00 +13°C° 0.2 mm 4 mps 748 mmHg 82%
12:00 +13°C° 0.2 mm 3 mps 747 mmHg 82%
13:00 +13°C° 0.2 mm 3 mps 747 mmHg 83%
14:00 +13°C° 0.2 mm 3 mps 747 mmHg 83%
15:00 +13°C° 0.1 mm 3 mps 747 mmHg 81%
16:00 +14°C° 0.1 mm 3 mps 747 mmHg 79%
17:00 +14°C° 0.1 mm 3 mps 747 mmHg 77%
18:00 +14°C° 0.1 mm 3 mps 747 mmHg 81%
19:00 +13°C° 0.1 mm 3 mps 747 mmHg 86%
20:00 +12°C° 0.1 mm 3 mps 747 mmHg 91%
21:00 +12°C° 0.1 mm 4 mps 747 mmHg 91%
22:00 +12°C° 0.1 mm 4 mps 747 mmHg 92%
23:00 +13°C° 0.1 mm 4 mps 747 mmHg 92%

Tomorrow, 12 August, Wednesday

Time Temperature Precipitation Wind Pressure Humidity
00:00 +12°C° 0 mm 4 mps 747 mmHg 92%
01:00 +12°C° 0 mm 4 mps 747 mmHg 91%
02:00 +12°C° 0 mm 4 mps 747 mmHg 91%
03:00 +12°C° 0.1 mm 4 mps 748 mmHg 91%
04:00 +12°C° 0.1 mm 4 mps 748 mmHg 91%
05:00 +11°C° 0.1 mm 4 mps 748 mmHg 91%
06:00 +12°C° 0 mm 4 mps 748 mmHg 88%
07:00 +12°C° 0 mm 4 mps 748 mmHg 85%
08:00 +12°C° 0 mm 4 mps 748 mmHg 81%
09:00 +13°C° 0 mm 4 mps 749 mmHg 77%
10:00 +14°C° 0 mm 4 mps 749 mmHg 73%
11:00 +15°C° 0 mm 4 mps 749 mmHg 69%
12:00 +17°C° 0.1 mm 4 mps 749 mmHg 66%
13:00 +18°C° 0.1 mm 4 mps 749 mmHg 64%
14:00 +18°C° 0.1 mm 4 mps 749 mmHg 62%
15:00 +18°C° 0.1 mm 4 mps 749 mmHg 63%
16:00 +17°C° 0.1 mm 3 mps 749 mmHg 63%
17:00 +17°C° 0.1 mm 3 mps 749 mmHg 64%
18:00 +14°C° 0 mm 3 mps 749 mmHg 69%
19:00 +13°C° 0 mm 2 mps 749 mmHg 74%
20:00 +10°C° 0 mm 2 mps 749 mmHg 79%
21:00 +10°C° 0 mm 2 mps 750 mmHg 81%
22:00 +9°C° 0 mm 2 mps 750 mmHg 83%
23:00 +9°C° 0 mm 2 mps 750 mmHg 85%

Day after tomorrow, 13 August, Thursday

Time Temperature Precipitation Wind Pressure Humidity
00:00 +9°C° 0 mm 2 mps 750 mmHg 83%
01:00 +9°C° 0 mm 2 mps 749 mmHg 81%
02:00 +10°C° 0 mm 1 mps 749 mmHg 80%
03:00 +10°C° 0 mm 2 mps 749 mmHg 80%
04:00 +10°C° 0 mm 2 mps 749 mmHg 80%
05:00 +10°C° 0 mm 2 mps 749 mmHg 81%
06:00 +12°C° 0.1 mm 2 mps 749 mmHg 78%
07:00 +13°C° 0.1 mm 2 mps 749 mmHg 76%
08:00 +13°C° 0.1 mm 2 mps 749 mmHg 74%
09:00 +14°C° 0.1 mm 2 mps 749 mmHg 71%
10:00 +14°C° 0.1 mm 3 mps 749 mmHg 68%
11:00 +14°C° 0.1 mm 3 mps 749 mmHg 66%
12:00 +16°C° 0.1 mm 2 mps 749 mmHg 63%
13:00 +16°C° 0.1 mm 2 mps 749 mmHg 61%
14:00 +17°C° 0.1 mm 2 mps 749 mmHg 58%
15:00 +16°C° 0.1 mm 2 mps 749 mmHg 63%
16:00 +16°C° 0.1 mm 2 mps 749 mmHg 67%
17:00 +15°C° 0.1 mm 2 mps 749 mmHg 72%
18:00 +14°C° 0.1 mm 2 mps 749 mmHg 76%
19:00 +13°C° 0.1 mm 2 mps 749 mmHg 80%
20:00 +12°C° 0.1 mm 2 mps 749 mmHg 84%
21:00 +10°C° 0 mm 2 mps 749 mmHg 86%
22:00 +9°C° 0 mm 2 mps 749 mmHg 87%
23:00 +10°C° 0 mm 1 mps 749 mmHg 89%

14 August, Friday

Time Temperature Precipitation Wind Pressure Humidity
00:00 +9°C° 0 mm 1 mps 749 mmHg 91%
01:00 +9°C° 0 mm 1 mps 749 mmHg 93%
02:00 +8°C° 0 mm 1 mps 749 mmHg 95%
03:00 +8°C° 0 mm 1 mps 749 mmHg 95%
04:00 +8°C° 0 mm 1 mps 749 mmHg 95%
05:00 +8°C° 0 mm 1 mps 749 mmHg 95%
06:00 +10°C° 0 mm 1 mps 750 mmHg 85%
07:00 +13°C° 0 mm 1 mps 750 mmHg 75%
08:00 +15°C° 0 mm 1 mps 750 mmHg 66%
09:00 +16°C° 0 mm 1 mps 750 mmHg 60%
10:00 +18°C° 0 mm 2 mps 749 mmHg 55%
11:00 +19°C° 0 mm 2 mps 749 mmHg 49%
12:00 +19°C° 0 mm 2 mps 749 mmHg 49%
13:00 +19°C° 0 mm 2 mps 749 mmHg 49%
14:00 +19°C° 0 mm 2 mps 749 mmHg 49%
15:00 +20°C° 0 mm 1 mps 748 mmHg 52%
16:00 +20°C° 0 mm 1 mps 748 mmHg 55%
17:00 +20°C° 0 mm 1 mps 748 mmHg 59%
18:00 +18°C° 0 mm 1 mps 748 mmHg 63%
19:00 +15°C° 0 mm 1 mps 748 mmHg 68%
20:00 +13°C° 0 mm 1 mps 748 mmHg 73%
21:00 +13°C° 0 mm 1 mps 748 mmHg 74%
22:00 +13°C° 0 mm 1 mps 748 mmHg 76%
23:00 +12°C° 0 mm 1 mps 748 mmHg 77%

15 August, Saturday

Time Temperature Precipitation Wind Pressure Humidity
00:00 +12°C° 0 mm 1 mps 748 mmHg 79%
01:00 +12°C° 0 mm 1 mps 747 mmHg 80%
02:00 +11°C° 0 mm 1 mps 747 mmHg 82%
03:00 +11°C° 0 mm 1 mps 747 mmHg 82%
04:00 +11°C° 0 mm 1 mps 747 mmHg 83%
05:00 +11°C° 0 mm 1 mps 747 mmHg 83%
06:00 +13°C° 0.1 mm 1 mps 747 mmHg 81%
07:00 +14°C° 0.1 mm 1 mps 747 mmHg 79%
08:00 +16°C° 0.1 mm 1 mps 747 mmHg 76%
09:00 +16°C° 0.1 mm 1 mps 747 mmHg 76%
10:00 +18°C° 0.1 mm 1 mps 747 mmHg 76%
11:00 +19°C° 0.1 mm 1 mps 747 mmHg 76%
12:00 +18°C° 0.2 mm 1 mps 747 mmHg 77%
13:00 +18°C° 0.2 mm 1 mps 747 mmHg 79%
14:00 +17°C° 0.2 mm 2 mps 747 mmHg 80%
15:00 +19°C° 0.1 mm 1 mps 747 mmHg 78%
16:00 +19°C° 0.1 mm 1 mps 747 mmHg 77%
17:00 +19°C° 0.1 mm 1 mps 747 mmHg 75%
18:00 +18°C° 0 mm 1 mps 747 mmHg 81%
19:00 +15°C° 0 mm 1 mps 747 mmHg 86%
20:00 +14°C° 0 mm 1 mps 747 mmHg 91%
21:00 +13°C° 0 mm 2 mps 748 mmHg 91%
22:00 +12°C° 0 mm 2 mps 748 mmHg 92%
23:00 +10°C° 0 mm 2 mps 748 mmHg 92%

16 August, Sunday

Time Temperature Precipitation Wind Pressure Humidity
00:00 +10°C° 0 mm 2 mps 749 mmHg 92%
01:00 +9°C° 0 mm 2 mps 749 mmHg 92%
02:00 +8°C° 0 mm 2 mps 749 mmHg 92%
03:00 +8°C° 0 mm 2 mps 750 mmHg 91%
04:00 +8°C° 0 mm 2 mps 750 mmHg 91%
05:00 +8°C° 0 mm 2 mps 750 mmHg 91%
06:00 +10°C° 0 mm 2 mps 750 mmHg 84%
07:00 +13°C° 0 mm 2 mps 751 mmHg 77%
08:00 +15°C° 0 mm 2 mps 751 mmHg 69%
09:00 +17°C° 0 mm 2 mps 751 mmHg 63%
10:00 +18°C° 0 mm 2 mps 751 mmHg 57%
11:00 +20°C° 0 mm 2 mps 751 mmHg 51%
12:00 +20°C° 0 mm 2 mps 751 mmHg 51%
13:00 +20°C° 0 mm 2 mps 751 mmHg 51%
14:00 +21°C° 0 mm 2 mps 751 mmHg 51%
15:00 +20°C° 0 mm 2 mps 751 mmHg 54%
16:00 +20°C° 0 mm 2 mps 751 mmHg 57%
17:00 +20°C° 0 mm 2 mps 751 mmHg 60%
18:00 +18°C° 0 mm 1 mps 751 mmHg 67%
19:00 +15°C° 0 mm 1 mps 751 mmHg 73%
20:00 +13°C° 0 mm 1 mps 752 mmHg 79%
21:00 +13°C° 0 mm 1 mps 752 mmHg 81%
22:00 +12°C° 0 mm 1 mps 752 mmHg 83%
23:00 +11°C° 0 mm 1 mps 752 mmHg 85%
Show more